EW7771 Weather Reports


Display with metric or nautical units.
time (UTC)temp
F
wind
direction
speed
MPH
gust
MPH
rain 1hr
in
rain 24hr
in
rain mn
in
humidity
%
barometer
mb
20260901221442 65 193 1.0 3.0 0.00 0.01 0.01 79 1009.0
20260901220934 65 192 1.0 3.0 0.00 0.01 0.01 78 1009.0
20260901220430 64 215 1.0 3.0 0.00 0.01 0.01 79 1008.9
20260901215923 64 195 0.0 2.0 0.00 0.01 0.01 79 1008.9
20260901215416 64 87 0.0 3.0 0.00 0.01 0.01 79 1008.8
20260901215142 64 87 1.0 3.0 0.00 0.01 0.01 79 1008.8
20260901214401 64 142 1.0 4.0 0.00 0.01 0.01 79 1008.8
20260901213858 64 57 1.0 4.0 0.00 0.01 0.01 80 1008.9
20260901213355 64 207 1.0 3.0 0.00 0.01 0.01 80 1008.9
20260901212843 64 139 0.0 3.0 0.00 0.01 0.01 81 1008.9
20260901212341 64 134 1.0 3.0 0.00 0.01 0.01 81 1009.0
20260901211832 63 167 1.0 3.0 0.00 0.01 0.01 81 1009.0
20260901211333 63 161 1.0 5.0 0.00 0.01 0.01 82 1009.0
20260901211058 63 123 1.0 5.0 0.00 0.01 0.01 81 1009.0
20260901210317 63 165 0.0 3.0 0.00 0.01 0.01 82 1009.1
20260901205811 63 111 0.0 1.0 0.00 0.01 0.01 84 1009.2
20260901205527 63 80 0.0 2.0 0.00 0.01 0.01 83 1009.2
20260901204755 63 80 0.0 2.0 0.00 0.01 0.01 81 1009.3
20260901204253 63 154 0.0 2.0 0.00 0.01 0.01 81 1009.4
20260901203748 63 40 1.0 4.0 0.00 0.01 0.01 82 1009.3
20260901203504 63 190 1.0 4.0 0.00 0.01 0.01 81 1009.4
20260901202735 63 9 0.0 3.0 0.00 0.01 0.01 81 1009.4
20260901202229 63 54 0.0 2.0 0.00 0.01 0.01 82 1009.3
20260901201951 63 311 1.0 6.0 0.00 0.01 0.01 81 1009.3
20260901201220 63 114 1.0 6.0 0.00 0.01 0.01 81 1009.3
20260901200711 63 111 1.0 3.0 0.00 0.01 0.01 81 1009.4
20260901200205 63 45 1.0 3.0 0.00 0.01 0.01 83 1009.4
20260901195659 63 78 1.0 6.0 0.00 0.01 0.01 83 1009.4
20260901195417 62 124 1.0 4.0 0.00 0.01 0.01 83 1009.3
20260901194647 62 76 1.0 3.0 0.00 0.01 0.01 83 1009.3
20260901194141 62 106 1.0 4.0 0.00 0.01 0.01 82 1009.3
20260901194117 62 52 1.0 5.0 0.00 0.01 0.01 80 1009.4
20260901193342 62 258 1.0 5.0 0.00 0.01 0.01 81 1009.3
20260901193109 62 202 1.0 6.0 0.00 0.01 0.01 81 1009.3
20260901192347 62 19 2.0 6.0 0.00 0.01 0.01 82 1009.4
20260901191848 62 153 2.0 9.0 0.00 0.01 0.01 82 1009.4
20260901191124 62 177 2.0 9.0 0.00 0.01 0.01 81 1009.4
20260901190623 62 88 2.0 6.0 0.00 0.01 0.01 82 1009.3
20260901190117 62 135 3.0 7.0 0.00 0.01 0.01 82 1009.2
20260901185614 62 181 3.0 8.0 0.00 0.01 0.01 82 1009.2
20260901185115 62 158 2.0 8.0 0.00 0.01 0.01 81 1009.2
20260901184840 62 171 2.0 8.0 0.00 0.01 0.01 82 1009.2
20260901184111 62 222 1.0 8.0 0.00 0.01 0.01 82 1009.3
20260901183613 62 190 1.0 5.0 0.00 0.01 0.01 84 1009.3
20260901183111 62 207 2.0 9.0 0.00 0.01 0.01 82 1009.4
20260901182614 62 17 2.0 9.0 0.00 0.01 0.01 82 1009.5
20260901182110 62 162 2.0 8.0 0.00 0.01 0.01 83 1009.3
20260901181613 61 130 3.0 8.0 0.00 0.01 0.01 83 1009.3
20260901181607 61 171 2.0 6.0 0.00 0.01 0.01 84 1009.3
20260901180609 61 42 2.0 7.0 0.00 0.01 0.01 84 1009.2
20260901180104 61 142 1.0 7.0 0.00 0.01 0.01 84 1009.1
20260901175556 61 182 1.0 6.0 0.00 0.01 0.01 85 1009.0
20260901175051 61 80 1.0 6.0 0.00 0.01 0.01 86 1008.9
20260901174816 61 223 2.0 8.0 0.00 0.01 0.01 86 1008.8
20260901174038 60 65 2.0 9.0 0.00 0.01 0.01 85 1008.8
20260901173534 60 186 1.0 9.0 0.00 0.01 0.01 86 1008.8
20260901173030 60 169 1.0 6.0 0.00 0.01 0.01 87 1008.9
20260901172528 60 138 2.0 10.0 0.00 0.01 0.01 86 1008.8
20260901172028 60 171 2.0 10.0 0.00 0.01 0.01 87 1008.9
20260901171527 60 110 2.0 7.0 0.00 0.01 0.01 88 1008.7
20260901171028 59 136 1.0 6.0 0.00 0.01 0.01 88 1008.9
20260901170528 59 140 1.0 6.0 0.00 0.01 0.01 90 1008.9
20260901170028 59 94 1.0 5.0 0.00 0.01 0.01 91 1008.9
20260901165527 58 317 1.0 5.0 0.01 0.01 0.01 91 1008.9
20260901165030 58 105 0.0 3.0 0.01 0.01 0.01 92 1008.9
20260901164528 58 57 0.0 2.0 0.01 0.01 0.01 94 1008.9
20260901164028 57 57 1.0 4.0 0.01 0.01 0.01 95 1009.0
20260901163528 57 57 2.0 5.0 0.01 0.01 0.01 96 1009.0
20260901163030 56 146 2.0 6.0 0.01 0.01 0.01 97 1009.1
20260901162527 56 282 1.0 6.0 0.01 0.01 0.01 97 1009.0
20260901162028 56 47 1.0 3.0 0.01 0.01 0.01 97 1009.0
20260901161536 56 140 1.0 3.0 0.01 0.01 0.01 97 1009.1
20260901161027 55 51 0.0 3.0 0.01 0.01 0.01 97 1009.0
20260901160535 55 145 0.0 2.0 0.01 0.01 0.01 97 1009.1
20260901160024 55 93 0.0 2.0 0.01 0.01 0.01 97 1009.1
20260901155521 54 128 0.0 2.0 0.00 0.00 0.00 97 1009.2
20260901155456 54 128 0.0 2.0 0.00 0.00 0.00 97 1009.1
20260901154509 54 230 0.0 1.0 0.00 0.00 0.00 97 1009.1
20260901154006 53 235 0.0 0.0 0.00 0.00 0.00 97 1009.2
20260901153458 53 237 0.0 0.0 0.00 0.00 0.00 97 1009.3
20260901152952 53 237 0.0 0.0 0.00 0.00 0.00 97 1009.3
20260901152707 53 237 0.0 0.0 0.00 0.00 0.00 97 1009.4
20260901151940 53 237 0.0 0.0 0.00 0.00 0.00 97 1009.3
20260901151434 53 237 0.0 0.0 0.00 0.00 0.00 97 1009.2
20260901150928 52 237 0.0 0.0 0.00 0.00 0.00 97 1009.2
20260901150424 52 237 0.0 0.0 0.00 0.00 0.00 97 1009.2
20260901145916 52 237 0.0 0.0 0.00 0.00 0.00 97 1009.2
20260901145410 52 237 0.0 0.0 0.00 0.00 0.00 97 1009.1
20260901144906 51 237 0.0 0.0 0.00 0.00 0.00 97 1009.1
20260901144624 51 237 0.0 0.0 0.00 0.00 0.00 97 1009.0
20260901143848 51 237 0.0 0.0 0.00 0.00 0.00 97 1008.9
20260901143348 51 237 0.0 0.0 0.00 0.00 0.00 97 1008.9
20260901142840 51 223 0.0 0.0 0.00 0.00 0.00 96 1008.9
20260901142333 51 223 0.0 0.0 0.00 0.00 0.00 96 1008.9
20260901142050 51 223 0.0 0.0 0.00 0.00 0.00 96 1008.9
20260901141324 51 223 0.0 0.0 0.00 0.00 0.00 96 1009.0
20260901140815 51 223 0.0 0.0 0.00 0.00 0.00 96 1008.9
20260901140309 51 223 0.0 0.0 0.00 0.00 0.00 96 1008.9
20260901135804 51 223 0.0 0.0 0.00 0.00 0.00 96 1008.9
20260901135300 51 223 0.0 0.0 0.00 0.00 0.00 96 1009.0
20260901135015 51 223 0.0 0.0 0.00 0.00 0.00 96 1008.9
20260901134246 51 223 0.0 0.0 0.00 0.00 0.00 96 1008.9
20260901133740 51 223 0.0 0.0 0.00 0.00 0.00 96 1008.8
20260901133236 51 223 0.0 0.0 0.00 0.00 0.00 96 1008.8
20260901132728 51 223 0.0 1.0 0.00 0.00 0.00 96 1008.8
20260901132219 51 223 0.0 1.0 0.00 0.00 0.00 96 1008.7
20260901131715 51 223 0.0 1.0 0.00 0.00 0.00 96 1008.7
20260901131209 51 223 0.0 1.0 0.00 0.00 0.00 96 1008.7
20260901130704 51 223 0.0 1.0 0.00 0.00 0.00 96 1008.8
20260901130158 51 223 0.0 2.0 0.00 0.00 0.00 96 1008.8
20260901125909 51 223 0.0 2.0 0.00 0.00 0.00 96 1008.7
20260901125148 51 223 0.0 1.0 0.00 0.00 0.00 96 1008.7
20260901124650 51 223 0.0 1.0 0.00 0.00 0.00 96 1008.7
20260901124134 51 223 0.0 1.0 0.00 0.00 0.00 96 1008.6
20260901123627 51 223 0.0 1.0 0.00 0.00 0.00 96 1008.6
20260901123124 51 223 0.0 1.0 0.00 0.00 0.00 96 1008.7
20260901122616 51 223 0.0 0.0 0.00 0.00 0.00 96 1008.6
20260901122106 51 223 0.0 0.0 0.00 0.00 0.00 96 1008.6
20260901121604 51 223 0.0 2.0 0.00 0.00 0.00 96 1008.5
20260901121101 51 223 0.0 2.0 0.00 0.00 0.00 96 1008.4
20260901120809 51 223 0.0 2.0 0.00 0.00 0.00 96 1008.4
20260901120312 51 223 0.0 1.0 0.00 0.00 0.00 96 1008.3
20260901115539 51 223 0.0 1.0 0.00 0.00 0.00 96 1008.3
20260901115036 51 223 0.0 1.0 0.00 0.00 0.00 96 1008.3
20260901114527 52 223 0.0 1.0 0.00 0.00 0.00 96 1008.4
20260901114023 52 223 0.0 1.0 0.00 0.00 0.00 96 1008.4
20260901113517 52 223 0.0 0.0 0.00 0.00 0.00 96 1008.3
20260901113009 52 223 0.0 1.0 0.00 0.00 0.00 96 1008.2
20260901112504 52 223 0.0 1.0 0.00 0.00 0.00 96 1008.2
20260901111954 52 223 0.0 1.0 0.00 0.00 0.00 96 1008.1
20260901111452 52 223 0.0 0.0 0.00 0.00 0.00 96 1008.1
20260901110948 52 223 0.0 0.0 0.00 0.00 0.00 96 1008.1
20260901110928 52 223 0.0 0.0 0.00 0.00 0.00 96 1008.1
20260901105934 52 223 0.0 0.0 0.00 0.00 0.00 96 1008.1
20260901105653 52 223 0.0 0.0 0.00 0.00 0.00 96 1008.1
20260901104926 52 223 0.0 0.0 0.00 0.00 0.00 95 1008.2
20260901104416 52 223 0.0 0.0 0.00 0.00 0.00 95 1008.2
20260901103916 52 223 0.0 0.0 0.00 0.00 0.00 95 1008.1
20260901103418 52 223 0.0 0.0 0.00 0.00 0.00 95 1008.1
20260901102918 52 223 0.0 0.0 0.00 0.00 0.00 95 1008.1
20260901102419 52 223 0.0 0.0 0.00 0.00 0.00 95 1008.0
20260901101919 53 223 0.0 0.0 0.00 0.00 0.00 95 1008.0
20260901101414 53 223 0.0 0.0 0.00 0.00 0.00 95 1007.9
20260901100916 53 223 0.0 0.0 0.00 0.00 0.00 95 1007.9
20260901100634 53 223 0.0 0.0 0.00 0.00 0.00 95 1007.9
20260901095913 53 223 0.0 0.0 0.00 0.00 0.00 95 1007.9
20260901095415 53 223 0.0 0.0 0.00 0.00 0.00 95 1007.9
20260901094912 53 223 0.0 0.0 0.00 0.00 0.00 95 1007.9
20260901094648 53 223 0.0 0.0 0.00 0.00 0.00 95 1007.9
20260901093913 53 223 0.0 0.0 0.00 0.00 0.00 95 1007.9
20260901093415 53 223 0.0 0.0 0.00 0.00 0.00 95 1007.9
20260901092914 53 223 0.0 1.0 0.00 0.00 0.00 95 1007.9
20260901092414 53 223 0.0 1.0 0.00 0.00 0.00 95 1007.9
20260901091914 53 223 0.0 0.0 0.00 0.00 0.00 95 1007.9
20260901091415 53 223 0.0 0.0 0.00 0.00 0.00 95 1007.9
20260901091146 53 223 0.0 0.0 0.00 0.00 0.00 95 1007.9
20260901090414 54 223 0.0 0.0 0.00 0.00 0.00 95 1007.9
20260901085910 54 223 0.0 0.0 0.00 0.00 0.00 95 1007.9
20260901085411 54 223 0.0 0.0 0.00 0.00 0.00 95 1007.9
20260901085137 54 223 0.0 1.0 0.00 0.00 0.00 95 1007.9
20260901084642 54 223 0.0 1.0 0.00 0.00 0.00 95 1007.8
20260901084130 54 223 0.0 0.0 0.00 0.00 0.00 95 1007.8
20260901083409 54 223 0.0 0.0 0.00 0.00 0.00 95 1007.8
20260901082909 54 223 0.0 0.0 0.00 0.00 0.00 95 1007.8
20260901082633 54 223 0.0 0.0 0.00 0.00 0.00 95 1007.9
20260901082136 54 223 0.0 0.0 0.00 0.00 0.00 95 1007.9
20260901081633 54 223 0.0 0.0 0.00 0.00 0.00 94 1007.9
20260901080909 54 223 0.0 0.0 0.00 0.00 0.00 94 1007.9
20260901080903 54 223 0.0 0.0 0.00 0.00 0.00 94 1007.8
20260901075906 55 223 0.0 0.0 0.00 0.00 0.00 94 1007.8
20260901075402 55 223 0.0 0.0 0.00 0.00 0.00 94 1007.7
20260901074911 55 223 0.0 0.0 0.00 0.00 0.00 94 1007.7
20260901074407 55 223 0.0 0.0 0.00 0.00 0.00 94 1007.8
20260901074120 55 223 0.0 1.0 0.00 0.00 0.00 94 1007.8
20260901073353 55 223 0.0 2.0 0.00 0.00 0.00 94 1007.7
20260901072851 55 223 0.0 2.0 0.00 0.00 0.00 94 1007.7
20260901072343 55 223 0.0 0.0 0.00 0.00 0.00 94 1007.7
20260901072102 55 223 0.0 0.0 0.00 0.00 0.00 93 1007.7
20260901071330 55 223 0.0 0.0 0.00 0.00 0.00 93 1007.7
20260901070827 56 223 0.0 1.0 0.00 0.00 0.00 93 1007.7
20260901070319 56 223 0.0 2.0 0.00 0.00 0.00 93 1007.7
20260901065813 56 223 0.0 2.0 0.00 0.00 0.00 93 1007.7
20260901065306 56 223 0.0 0.0 0.00 0.00 0.00 93 1007.7
20260901064803 56 223 0.0 0.0 0.00 0.00 0.00 93 1007.8
20260901064258 56 223 0.0 0.0 0.00 0.00 0.00 93 1007.8
20260901064242 56 223 0.0 0.0 0.00 0.00 0.00 93 1007.8
20260901063252 56 223 0.0 0.0 0.00 0.00 0.00 93 1007.8
20260901062752 57 223 0.0 0.0 0.00 0.00 0.00 93 1007.7
20260901062254 57 223 0.0 0.0 0.00 0.00 0.00 93 1007.8
20260901061753 57 223 0.0 0.0 0.00 0.00 0.00 92 1007.8
20260901061254 57 223 0.0 2.0 0.00 0.00 0.00 92 1007.7
20260901060752 57 223 0.0 2.0 0.00 0.00 0.00 92 1007.8
20260901060251 57 223 0.0 1.0 0.00 0.00 0.00 92 1007.8
20260901060020 58 223 0.0 0.0 0.00 0.00 0.00 92 1007.9
20260901055256 58 223 0.0 0.0 0.00 0.00 0.00 91 1008.0
20260901054753 58 223 0.0 0.0 0.00 0.00 0.00 91 1007.9
20260901054514 58 223 0.0 0.0 0.00 0.00 0.00 91 1007.9
20260901053751 58 223 0.0 0.0 0.00 0.00 0.00 91 1008.0
20260901053251 58 223 0.0 0.0 0.00 0.00 0.00 90 1008.0
20260901052750 58 223 0.0 0.0 0.00 0.00 0.00 90 1008.0
20260901052251 58 223 0.0 0.0 0.00 0.00 0.00 90 1008.0
20260901051745 59 223 0.0 0.0 0.00 0.00 0.00 90 1008.0
20260901051238 59 223 0.0 0.0 0.00 0.00 0.00 90 1008.0
20260901050734 59 223 0.0 0.0 0.00 0.00 0.00 89 1008.0
20260901050232 59 223 0.0 0.0 0.00 0.00 0.00 89 1008.0
20260901045732 59 223 0.0 0.0 0.00 0.00 0.00 89 1008.0
20260901045228 60 223 0.0 0.0 0.00 0.00 0.00 89 1008.1
20260901044730 60 223 0.0 0.0 0.00 0.00 0.00 88 1008.1
20260901044237 60 223 0.0 0.0 0.00 0.00 0.00 88 1008.1
20260901043733 60 223 0.0 0.0 0.00 0.00 0.00 88 1008.1
20260901043232 60 223 0.0 0.0 0.00 0.00 0.00 87 1008.2
20260901042736 60 223 0.0 0.0 0.00 0.00 0.00 87 1008.1
20260901042233 61 223 0.0 1.0 0.00 0.00 0.00 86 1008.2
20260901041728 61 223 0.0 1.0 0.00 0.00 0.00 86 1008.2
20260901041502 61 223 0.0 0.0 0.00 0.00 0.00 85 1008.0
20260901040730 62 223 0.0 0.0 0.00 0.00 0.00 85 1008.0
20260901040232 62 223 0.0 0.0 0.00 0.00 0.00 85 1008.0
20260901035729 62 223 0.0 0.0 0.00 0.00 0.00 84 1007.9
20260901035228 62 223 0.0 0.0 0.00 0.00 0.00 84 1008.0
20260901034957 63 223 0.0 1.0 0.00 0.00 0.00 83 1007.9
20260901034452 63 223 0.0 1.0 0.00 0.00 0.00 83 1007.9
20260901033728 63 223 0.0 2.0 0.00 0.00 0.00 82 1007.8
20260901033230 64 223 0.0 2.0 0.00 0.00 0.00 82 1007.8
20260901032730 64 223 0.0 1.0 0.00 0.00 0.00 82 1007.7
20260901032222 64 223 0.0 1.0 0.00 0.00 0.00 82 1007.6
20260901031716 64 223 0.0 1.0 0.00 0.00 0.00 82 1007.6
20260901031211 65 223 0.0 1.0 0.00 0.00 0.00 82 1007.4
20260901030703 65 223 1.0 3.0 0.00 0.00 0.00 81 1007.4
20260901030156 65 224 1.0 4.0 0.00 0.00 0.00 81 1007.4
20260901025652 66 228 1.0 5.0 0.00 0.00 0.00 80 1007.4
20260901025144 66 211 1.0 5.0 0.00 0.00 0.00 79 1007.3
20260901024639 66 175 1.0 4.0 0.00 0.00 0.00 79 1007.3
20260901024134 67 225 1.0 4.0 0.00 0.00 0.00 78 1007.2
20260901023626 67 235 1.0 4.0 0.00 0.00 0.00 78 1007.2
20260901023120 68 223 2.0 4.0 0.00 0.00 0.00 77 1007.2
20260901022615 68 227 1.0 4.0 0.00 0.00 0.00 77 1007.2
20260901022108 69 183 1.0 4.0 0.00 0.00 0.00 76 1007.1
20260901021602 69 198 1.0 5.0 0.00 0.00 0.00 76 1007.1
20260901021056 69 189 1.0 5.0 0.00 0.00 0.00 74 1007.1
20260901020550 70 175 1.0 4.0 0.00 0.00 0.00 72 1007.1
20260901020044 70 169 2.0 4.0 0.00 0.00 0.00 72 1007.1
20260901015812 71 206 2.0 4.0 0.00 0.00 0.00 70 1007.0
20260901015032 71 220 2.0 6.0 0.00 0.00 0.00 70 1007.1
20260901014527 71 173 2.0 6.0 0.00 0.00 0.00 67 1007.0
20260901014020 72 148 1.0 4.0 0.00 0.00 0.00 66 1007.0
20260901013514 72 184 1.0 5.0 0.00 0.00 0.00 70 1007.0
20260901013007 73 221 2.0 5.0 0.00 0.00 0.00 70 1007.0
20260901012503 73 187 1.0 4.0 0.00 0.00 0.00 66 1007.0
20260901011957 73 178 2.0 7.0 0.00 0.00 0.00 65 1007.0
20260901011450 73 103 1.0 7.0 0.00 0.00 0.00 63 1006.9
20260901010944 74 259 1.0 4.0 0.00 0.00 0.00 64 1007.0
20260901010439 74 171 0.0 2.0 0.00 0.00 0.00 67 1006.9
20260901005939 74 104 1.0 3.0 0.00 0.00 0.00 67 1006.9
20260901005441 74 178 1.0 3.0 0.00 0.00 0.00 62 1007.0
20260901004938 75 183 1.0 3.0 0.00 0.00 0.00 61 1006.9
20260901004437 75 206 1.0 5.0 0.00 0.00 0.00 63 1006.9
20260901003937 75 211 2.0 7.0 0.00 0.00 0.00 57 1006.9
20260901003436 75 147 2.0 7.0 0.00 0.00 0.00 57 1007.0
20260901002933 75 355 2.0 6.0 0.00 0.00 0.00 57 1006.9
20260901002658 75 132 2.0 4.0 0.00 0.00 0.00 57 1007.0
20260901001935 76 155 2.0 6.0 0.00 0.00 0.00 57 1007.1
20260901001433 76 119 2.0 6.0 0.00 0.00 0.00 56 1007.2
20260901000933 76 165 2.0 5.0 0.00 0.00 0.00 57 1007.1
20260901000432 76 298 2.0 6.0 0.00 0.00 0.00 56 1007.2
20260831235931 76 46 2.0 6.0 0.00 0.00 0.00 56 1007.2
20260831235432 76 290 2.0 5.0 0.00 0.00 0.00 56 1007.2
20260831234933 76 152 1.0 5.0 0.00 0.00 0.00 57 1007.3
20260831234432 76 229 1.0 5.0 0.00 0.00 0.00 57 1007.3
20260831233931 76 137 1.0 7.0 0.00 0.00 0.00 55 1007.3
20260831233703 77 186 1.0 6.0 0.00 0.00 0.00 57 1007.4
20260831232931 77 41 2.0 5.0 0.00 0.00 0.00 55 1007.4
20260831232427 77 175 1.0 4.0 0.00 0.00 0.00 55 1007.4
20260831232150 77 309 1.0 7.0 0.00 0.00 0.00 54 1007.4
20260831231430 78 165 2.0 7.0 0.00 0.00 0.00 53 1007.4
20260831230927 78 197 3.0 7.0 0.00 0.00 0.00 53 1007.4
20260831230424 78 165 2.0 7.0 0.00 0.00 0.00 53 1007.5
20260831225926 78 166 2.0 7.0 0.00 0.00 0.00 52 1007.7
20260831225652 78 288 2.0 6.0 0.00 0.00 0.00 54 1007.7
20260831224923 78 232 2.0 7.0 0.00 0.00 0.00 54 1007.7
20260831224421 78 209 2.0 7.0 0.00 0.00 0.00 55 1007.8
20260831224141 78 194 2.0 7.0 0.00 0.00 0.00 56 1007.8
20260831223420 78 125 2.0 8.0 0.00 0.00 0.00 56 1007.8
20260831223137 77 230 3.0 9.0 0.00 0.00 0.00 55 1007.9
20260831222418 77 254 2.0 9.0 0.00 0.00 0.00 54 1007.9
20260831221916 77 128 1.0 9.0 0.00 0.00 0.00 55 1008.0